H1 CPF 2 NER 2022 1 9 9 009 01 glonass106 H2 0705201 9106 32275 2022 1 9 0 0 0 2022 1 12 23 45 0 900 1 1 0 0 0 1 H9 10 0 59588 0.00000 0 -7977650.512 -21861173.452 -10442792.826 10 0 59588 900.00000 0 -8385572.766 -22911315.624 -7443619.157 10 0 59588 1800.00000 0 -8778219.800 -23561736.238 -4299836.874 10 0 59588 2700.00000 0 -9096855.138 -23808486.532 -1072527.208 10 0 59588 3600.00000 0 -9284250.843 -23661361.055 2175615.772 10 0 59588 4500.00000 0 -9287325.976 -23143375.091 5381505.350 10 0 59588 5400.00000 0 -9059617.513 -22289705.239 8482889.154 10 0 59588 6300.00000 0 -8563478.681 -21146138.462 11419558.721 10 0 59588 7200.00000 0 -7771911.375 -19767095.543 14134517.809 10 0 59588 8100.00000 0 -6669954.746 -18213312.616 16575086.703 10 0 59588 9000.00000 0 -5255570.863 -16549278.516 18693921.275 10 0 59588 9900.00000 0 -3539989.553 -14840535.708 20449927.260 10 0 59588 10800.00000 0 -1547497.100 -13150957.818 21809052.630 10 0 59588 11700.00000 0 685323.260 -11540117.460 22744943.352 10 0 59588 12600.00000 0 3110868.340 -10060853.999 23239450.430 10 0 59588 13500.00000 0 5672257.390 -8757142.162 23282979.076 10 0 59588 14400.00000 0 8305468.563 -7662349.822 22874673.654 10 0 59588 15300.00000 0 10941781.745 -6797956.921 22022435.034 10 0 59588 16200.00000 0 13510427.426 -6172788.292 20742769.981 10 0 59588 17100.00000 0 15941332.616 -5782791.773 19060475.166 10 0 59588 18000.00000 0 18167850.516 -5611370.379 17008161.406 10 0 59588 18900.00000 0 20129361.119 -5630254.159 14625626.678 10 0 59588 19800.00000 0 21773634.984 -5800874.821 11959089.275 10 0 59588 20700.00000 0 23058861.830 -6076185.109 9060295.370 10 0 59588 21600.00000 0 23955259.394 -6402846.067 5985517.695 10 0 59588 22500.00000 0 24446195.254 -6723689.655 2794464.432 10 0 59588 23400.00000 0 24528774.528 -6980352.393 -450880.549 10 0 59588 24300.00000 0 24213868.741 -7115968.161 -3687463.445 10 0 59588 25200.00000 0 23525584.634 -7077805.633 -6852388.516 10 0 59588 26100.00000 0 22500195.283 -6819737.940 -9884143.868 10 0 59588 27000.00000 0 21184578.643 -6304439.169 -12723800.683 10 0 59588 27900.00000 0 19634229.390 -5505213.744 -15316162.068 10 0 59588 28800.00000 0 17910927.951 -4407380.345 -17610838.680 10 0 59588 29700.00000 0 16080164.948 -3009150.770 -19563229.992 10 0 59588 30600.00000 0 14208429.388 -1321965.506 -21135392.054 10 0 59588 31500.00000 0 12360474.562 629729.245 -22296774.897 10 0 59588 32400.00000 0 10596676.183 2809254.959 -23024815.536 10 0 59588 33300.00000 0 8970593.218 5168993.346 -23305375.331 10 0 59588 34200.00000 0 7526833.157 7652145.018 -23133013.497 10 0 59588 35100.00000 0 6299310.458 10194881.821 -22511091.741 10 0 59588 36000.00000 0 5309970.316 12728803.923 -21451708.114 10 0 59588 36900.00000 0 4568030.343 15183599.893 -19975461.414 10 0 59588 37800.00000 0 4069770.979 17489799.495 -18111050.606 10 0 59588 38700.00000 0 3798882.416 19581504.984 -15894716.832 10 0 59588 39600.00000 0 3727352.501 21398987.237 -13369538.665 10 0 59588 40500.00000 0 3816857.277 22891038.708 -10584594.082 10 0 59588 41400.00000 0 4020594.654 24016985.128 -7594005.290 10 0 59588 42300.00000 0 4285483.010 24748272.039 -4455885.066 10 0 59588 43200.00000 0 4554631.047 25069560.039 -1231205.192 10 0 59588 44100.00000 0 4769973.735 24979283.246 2017390.712 10 0 59588 45000.00000 0 4874962.198 24489647.972 5226806.436 10 0 59588 45900.00000 0 4817193.096 23626072.291 8334720.403 10 0 59588 46800.00000 0 4550865.727 22426090.582 11280796.645 10 0 59588 47700.00000 0 4038962.437 20937769.668 14007855.686 10 0 59588 48600.00000 0 3255059.778 19217703.532 16462982.509 10 0 59588 49500.00000 0 2184693.440 17328671.080 18598550.262 10 0 59588 50400.00000 0 826218.927 15337055.309 20373140.092 10 0 59588 51300.00000 0 -808868.892 13310131.859 21752339.834 10 0 59588 52200.00000 0 -2696171.627 11313340.004 22709406.724 10 0 59588 53100.00000 0 -4799169.632 9407649.611 23225781.906 10 0 59588 54000.00000 0 -7070519.136 7647133.199 23291447.427 10 0 59588 54900.00000 0 -9453811.322 6076843.511 22905119.237 10 0 59588 55800.00000 0 -11885721.234 4731084.223 22074272.694 10 0 59588 56700.00000 0 -14298458.284 3632144.926 20815000.056 10 0 59588 57600.00000 0 -16622417.519 2789552.297 19151702.429 10 0 59588 58500.00000 0 -18788922.182 2199867.937 17116621.617 10 0 59588 59400.00000 0 -20732944.152 1847040.623 14749220.303 10 0 59588 60300.00000 0 -22395689.391 1703297.601 12095421.790 10 0 59588 61200.00000 0 -23726940.719 1730537.041 9206723.400 10 0 59588 62100.00000 0 -24687060.088 1882162.598 6139200.162 10 0 59588 63000.00000 0 -25248566.446 2105282.375 2952417.697 10 0 59588 63900.00000 0 -25397222.755 2343179.023 -291724.599 10 0 59588 64800.00000 0 -25132586.298 2537946.064 -3530197.535 10 0 59588 65700.00000 0 -24467998.832 2633178.286 -6700069.559 10 0 59588 66600.00000 0 -23430016.773 2576601.648 -9739733.197 10 0 59588 67500.00000 0 -22057305.225 2322530.524 -12590106.140 10 0 59588 68400.00000 0 -20399042.283 1834047.381 -15195783.117 10 0 59588 69300.00000 0 -18512900.718 1084811.753 -17506115.634 10 0 59588 70200.00000 0 -16462691.877 60421.044 -19476198.349 10 0 59588 71100.00000 0 -14315770.685 -1240735.339 -21067742.823 10 0 59588 72000.00000 0 -12140310.581 -2807165.584 -22249821.709 10 0 59588 72900.00000 0 -10002562.351 -4614522.957 -22999469.135 10 0 59588 73800.00000 0 -7964211.267 -6626401.931 -23302125.960 10 0 59588 74700.00000 0 -6079942.626 -8795650.584 -23151921.476 10 0 59588 75600.00000 0 -4395316.788 -11066145.398 -22551786.433 10 0 59588 76500.00000 0 -2945041.697 -13374955.166 -21513395.270 10 0 59588 77400.00000 0 -1751714.214 -15654804.338 -20056938.741 10 0 59588 78300.00000 0 -825081.814 -17836733.635 -18210731.268 10 0 59588 79200.00000 0 -161854.420 -19852847.290 -16010660.419 10 0 59588 80100.00000 0 253926.868 -21639032.489 -13499489.042 10 0 59588 81000.00000 0 449980.867 -23137537.545 -10726023.388 10 0 59588 81900.00000 0 464376.615 -24299301.122 -7744163.238 10 0 59588 82800.00000 0 343683.359 -25085934.993 -4611852.569 10 0 59588 83700.00000 0 140759.337 -25471277.356 -1389951.267 10 0 59588 84600.00000 0 -87726.288 -25442451.664 1858949.906 10 0 59588 85500.00000 0 -283932.760 -25000386.707 5071747.588 10 0 59589 0.00000 0 -391535.900 -24159776.506 8186052.995 10 0 59589 900.00000 0 -358350.830 -22948481.470 11141405.426 10 0 59589 1800.00000 0 -138777.663 -21406397.579 13880443.994 10 0 59589 2700.00000 0 304033.459 -19583839.845 16350020.359 10 0 59589 3600.00000 0 996389.991 -17539509.096 18502226.756 10 0 59589 4500.00000 0 1952713.189 -15338126.965 20295321.331 10 0 59589 5400.00000 0 3174699.980 -13047837.953 21694533.112 10 0 59589 6300.00000 0 4651026.371 -10737486.744 22672731.645 10 0 59589 7200.00000 0 6357605.562 -8473883.884 23210948.950 10 0 59589 8100.00000 0 8258390.904 -6319173.034 23298744.342 10 0 59589 9000.00000 0 10306691.227 -4328408.529 22934405.505 10 0 59589 9900.00000 0 12446944.715 -2547443.188 22124982.155 10 0 59589 10800.00000 0 14616878.546 -1011213.236 20886151.665 10 0 59589 11700.00000 0 16749965.383 257509.246 19241918.947 10 0 59589 12600.00000 0 18778075.272 1248845.232 17224155.922 10 0 59589 13500.00000 0 20634213.124 1965989.509 14871988.846 10 0 59589 14400.00000 0 22255228.147 2424836.508 12231044.605 10 0 59589 15300.00000 0 23584382.219 2653067.568 9352569.945 10 0 59589 16200.00000 0 24573669.834 2688738.582 6292440.121 10 0 59589 17100.00000 0 25185792.269 2578428.075 3110075.815 10 0 59589 18000.00000 0 25395702.742 2375024.303 -132710.724 10 0 59589 18900.00000 0 25191657.257 2135245.421 -3372917.819 10 0 59589 19800.00000 0 24575726.426 1916998.204 -6547581.135 10 0 59589 20700.00000 0 23563746.257 1776687.727 -9595000.653 10 0 59589 21600.00000 0 22184709.526 1766592.655 -12455943.523 10 0 59589 22500.00000 0 20479622.957 1932418.051 -15074798.864 10 0 59589 23400.00000 0 18499877.979 2311130.051 -17400661.552 10 0 59589 24300.00000 0 16305203.263 2929164.853 -19388323.683 10 0 59589 25200.00000 0 13961284.730 3801088.563 -20999154.323 10 0 59589 26100.00000 0 11537152.582 4928765.335 -22201850.456 10 0 59589 27000.00000 0 9102444.491 6301069.752 -22973044.771 10 0 59589 27900.00000 0 6724658.921 7894156.570 -23297758.773 10 0 59589 28800.00000 0 4466512.929 9672277.337 -23169692.679 10 0 59589 29700.00000 0 2383514.072 11589110.627 -22591346.767 10 0 59589 30600.00000 0 521846.903 13589551.003 -21573971.961 10 0 59589 31500.00000 0 -1083338.556 15611882.551 -20137350.661 10 0 59589 32400.00000 0 -2409166.039 17590246.691 -18309412.005 10 0 59589 33300.00000 0 -3445749.322 19457301.540 -16125688.821 10 0 59589 34200.00000 0 -4196356.798 21146961.806 -13628626.654 10 0 59589 35100.00000 0 -4677018.770 22597104.705 -10866758.065 10 0 59589 36000.00000 0 -4915595.271 23752128.601 -7893758.082 10 0 59589 36900.00000 0 -4950344.855 24565257.012 -4767399.251 10 0 59589 37800.00000 0 -4828055.910 25000491.220 -1548426.673 10 0 59589 38700.00000 0 -4601820.469 25034129.437 1700624.816 10 0 59589 39600.00000 0 -4328545.556 24655788.615 4916647.883 10 0 59589 40500.00000 0 -4066308.142 23868886.000 8037190.299 10 0 59589 41400.00000 0 -3871666.334 22690560.242 11001668.659 10 0 59589 42300.00000 0 -3797041.022 21151035.502 13752544.283 10 0 59589 43200.00000 0 -3888279.150 19292455.324 16236438.382 10 0 59589 44100.00000 0 -4182501.860 17167235.202 18405164.935 10 0 59589 45000.00000 0 -4706328.568 14836002.790 20216661.504 10 0 59589 45900.00000 0 -5474552.114 12365211.654 21635800.451 10 0 59589 46800.00000 0 -6489321.103 9824527.781 22635065.469 10 0 59589 47700.00000 0 -7739864.249 7284097.272 23195080.958 10 0 59589 48600.00000 0 -9202768.946 4811808.231 23304984.615 10 0 59589 49500.00000 0 -10842803.241 2470659.820 22962636.538 10 0 59589 50400.00000 0 -12614247.724 316346.937 22174661.003 10 0 59589 51300.00000 0 -14462682.733 -1604840.154 20956320.180 10 0 59589 52200.00000 0 -16327157.286 -3257714.983 19331221.916 10 0 59589 53100.00000 0 -18142650.052 -4619423.043 17330866.830 10 0 59589 54000.00000 0 -19842720.419 -5680148.804 14994042.808 10 0 59589 54900.00000 0 -21362239.430 -6443272.934 12366077.899 10 0 59589 55800.00000 0 -22640086.615 -6924973.901 9497965.442 10 0 59589 56700.00000 0 -23621699.859 -7153291.451 6445377.776 10 0 59589 57600.00000 0 -24261371.163 -7166691.941 3267587.270 10 0 59589 58500.00000 0 -24524191.481 -7012196.583 26315.514 10 0 59589 59400.00000 0 -24387562.321 -6743152.164 -3215466.900 10 0 59589 60300.00000 0 -23842209.840 -6416739.068 -6394766.410 10 0 59589 61200.00000 0 -22892658.027 -6091322.607 -9449793.962 10 0 59589 62100.00000 0 -21557140.394 -5823760.433 -12321169.542 10 0 59589 63000.00000 0 -19866953.171 -5666780.687 -14953079.838 10 0 59589 63900.00000 0 -17865276.709 -5666542.523 -17294366.000 10 0 59589 64800.00000 0 -15605514.063 -5860482.909 -19299520.078 10 0 59589 65700.00000 0 -13149215.976 -6275541.365 -20929570.668 10 0 59589 66600.00000 0 -10563678.876 -6926838.294 -22152840.543 10 0 59589 67500.00000 0 -7919315.905 -7816863.305 -22945561.782 10 0 59589 68400.00000 0 -5286910.342 -8935208.441 -23292336.732 10 0 59589 69300.00000 0 -2734865.567 -10258858.219 -23186436.109 10 0 59589 70200.00000 0 -326565.592 -11753025.014 -22629928.744 10 0 59589 71100.00000 0 1882044.625 -13372495.456 -21633640.602 10 0 59589 72000.00000 0 3844559.023 -15063431.961 -20216943.886 10 0 59589 72900.00000 0 5525803.884 -16765554.446 -18407380.297 10 0 59589 73800.00000 0 6903055.394 -18414611.236 -16240125.526 10 0 59589 74700.00000 0 7966731.518 -19945035.809 -13757305.221 10 0 59589 75600.00000 0 8720530.617 -21292678.125 -11007175.517 10 0 59589 76500.00000 0 9181012.295 -22397495.923 -8043183.867 10 0 59589 77400.00000 0 9376639.396 -23206092.817 -4922928.507 10 0 59589 78300.00000 0 9346322.805 -23673996.370 -1707036.879 10 0 59589 79200.00000 0 9137531.621 -23767580.110 1542014.936 10 0 59589 80100.00000 0 8804049.546 -23465548.420 4761118.371 10 0 59589 81000.00000 0 8403473.309 -22759921.625 7887760.062 10 0 59589 81900.00000 0 7994559.630 -21656479.679 10861236.871 10 0 59589 82800.00000 0 7634533.537 -20174645.669 13623834.221 10 0 59589 83700.00000 0 7376472.228 -18346813.903 16121944.787 10 0 59589 84600.00000 0 7266875.284 -16217150.559 18307105.930 10 0 59589 85500.00000 0 7343523.925 -13839916.949 20136935.935 10 0 59590 0.00000 0 7633719.610 -11277385.350 21575951.358 10 0 59590 900.00000 0 8152976.458 -8597432.499 22596250.934 10 0 59590 1800.00000 0 8904222.180 -5870913.912 23178051.578 10 0 59590 2700.00000 0 9877541.906 -3168922.889 23310069.359 10 0 59590 3600.00000 0 11050475.798 -560050.640 22989736.483 10 0 59590 4500.00000 0 12388858.693 1892240.990 22223251.241 10 0 59590 5400.00000 0 13848167.417 4132025.917 21025459.833 10 0 59590 6300.00000 0 15375320.243 6113000.483 19419572.105 10 0 59590 7200.00000 0 16910854.014 7800164.599 17436716.250 10 0 59590 8100.00000 0 18391388.627 9171028.404 15115340.495 10 0 59590 9000.00000 0 19752276.265 10216295.054 12500472.566 10 0 59590 9900.00000 0 20930324.740 10939991.869 9642850.703 10 0 59590 10800.00000 0 21866480.796 11359045.151 6597942.414 10 0 59590 11700.00000 0 22508360.590 11502317.208 3424869.610 10 0 59590 12600.00000 0 22812520.506 11409146.686 185260.864 10 0 59590 13500.00000 0 22746372.206 11127454.378 -3057946.833 10 0 59590 14400.00000 0 22289660.468 10711495.035 -6241733.320 10 0 59590 15300.00000 0 21435440.752 10219350.810 -9304223.139 10 0 59590 16200.00000 0 20190514.388 9710272.923 -12185891.670 10 0 59590 17100.00000 0 18575302.197 9241984.636 -14830725.597 10 0 59590 18000.00000 0 16623161.025 8868060.179 -17187314.574 10 0 59590 18900.00000 0 14379171.130 8635491.067 -19209852.634 10 0 59590 19800.00000 0 11898444.584 8582543.128 -20859029.721 10 0 59590 20700.00000 0 9244024.962 8736995.215 -22102796.018 10 0 59590 21600.00000 0 6484465.555 9114834.338 -22916984.412 10 0 59590 22500.00000 0 3691186.614 9719462.637 -23285779.289 10 0 59590 23400.00000 0 935721.377 10541449.961 -23202022.807 10 0 59590 24300.00000 0 -1713035.092 11558842.922 -22667352.982 10 0 59590 25200.00000 0 -4191460.381 12738017.836 -21692171.075 10 0 59590 26100.00000 0 -6443613.552 14035042.146 -20295438.943 10 0 59590 27000.00000 0 -8423318.927 15397487.517 -18504310.266 10 0 59590 27900.00000 0 -10095838.962 16766618.800 -16353602.581 10 0 59590 28800.00000 0 -11439067.448 18079867.111 -13885120.236 10 0 59590 29700.00000 0 -12444194.364 19273483.195 -11146841.174 10 0 59590 30600.00000 0 -13115815.829 20285259.542 -8191983.196 10 0 59590 31500.00000 0 -13471485.772 21057206.505 -5077967.912 10 0 59590 32400.00000 0 -13540729.499 21538069.590 -1865302.579 10 0 59590 33300.00000 0 -13363561.955 21685581.568 1383598.162 10 0 59590 34200.00000 0 -12988574.287 21468354.177 4605627.300 10 0 59590 35100.00000 0 -12470670.569 20867329.400 7738213.222 10 0 59590 36000.00000 0 -11868551.139 19876728.839 10720535.967 10 0 59590 36900.00000 0 -11242049.586 18504460.918 13494707.954 10 0 59590 37800.00000 0 -10649436.345 16771968.479 16006896.160 10 0 59590 38700.00000 0 -10144803.053 14713522.761 18208364.036 10 0 59590 39600.00000 0 -9775638.080 12374992.995 20056413.143 10 0 59590 40500.00000 0 -9580695.414 9812142.548 21515206.790 10 0 59590 41400.00000 0 -9588246.468 7088522.088 22556460.305 10 0 59590 42300.00000 0 -9814788.235 4273046.948 23159985.191 10 0 59590 43200.00000 0 -10264261.991 1437358.548 23314077.290 10 0 59590 44100.00000 0 -10927815.412 -1346921.420 23015741.926 10 0 59590 45000.00000 0 -11784118.315 -4010930.986 22270751.970 10 0 59590 45900.00000 0 -12800219.212 -6491189.477 21093537.732 10 0 59590 46800.00000 0 -13932907.306 -8731992.889 19506910.619 10 0 59590 47700.00000 0 -15130523.493 -10687484.534 17541625.462 10 0 59590 48600.00000 0 -16335145.080 -12323315.812 15235789.368 10 0 59590 49500.00000 0 -17485053.151 -13617828.836 12634127.830 10 0 59590 50400.00000 0 -18517379.372 -14562712.277 9787121.643 10 0 59590 51300.00000 0 -19370821.227 -15163103.735 6750030.785 10 0 59590 52200.00000 0 -19988311.403 -15437135.006 3581823.702 10 0 59590 53100.00000 0 -20319528.619 -15414939.889 344032.733 10 0 59590 54000.00000 0 -20323143.534 -15137166.899 -2900442.132 10 0 59590 54900.00000 0 -19968704.294 -14653060.138 -6088557.641 10 0 59590 55800.00000 0 -19238081.287 -14018189.864 -9158355.501 10 0 59590 56700.00000 0 -18126409.194 -13291929.210 -12050170.060 10 0 59590 57600.00000 0 -16642485.577 -12534784.231 -14707791.477 10 0 59590 58500.00000 0 -14808608.197 -11805690.647 -17079561.212 10 0 59590 59400.00000 0 -12659856.909 -11159391.947 -19119378.274 10 0 59590 60300.00000 0 -10242849.313 -10644010.006 -20787596.538 10 0 59590 61200.00000 0 -7614021.480 -10298911.000 -22051795.639 10 0 59590 62100.00000 0 -4837504.883 -10152956.872 -22887410.717 10 0 59590 63000.00000 0 -1982687.399 -10223216.151 -23278208.992 10 0 59590 63900.00000 0 878440.515 -10514188.542 -23216604.212 10 0 59590 64800.00000 0 3674044.659 -11017575.973 -22703803.138 10 0 59590 65700.00000 0 6335196.833 -11712609.873 -21749781.351 10 0 59590 66600.00000 0 8798501.690 -12566920.966 -20373088.942 10 0 59590 67500.00000 0 11008492.195 -13537915.154 -18600489.746 10 0 59590 68400.00000 0 12919694.764 -14574597.712 -16466440.987 10 0 59590 69300.00000 0 14498278.841 -15619769.088 -14012423.222 10 0 59590 70200.00000 0 15723223.063 -16612499.876 -11286133.443 10 0 59590 71100.00000 0 16586950.367 -17490780.657 -8340556.792 10 0 59590 72000.00000 0 17095406.499 -18194234.804 -5232935.023 10 0 59590 72900.00000 0 17267579.892 -18666779.629 -2023651.853 10 0 59590 73800.00000 0 17134484.300 -18859123.242 1224942.926 10 0 59590 74700.00000 0 16737648.149 -18730991.395 4449747.230 10 0 59590 75600.00000 0 16127175.430 -18252989.929 7588134.401 10 0 59590 76500.00000 0 15359460.844 -17408023.821 10579170.610 10 0 59590 77400.00000 0 14494656.394 -16192212.621 13364797.912 10 0 59590 78300.00000 0 13593996.906 -14615263.232 15890959.831 10 0 59590 79200.00000 0 12717097.586 -12700283.869 18108647.736 10 0 59590 80100.00000 0 11919337.648 -10483046.430 19974847.860 10 0 59590 81000.00000 0 11249440.090 -8010727.530 21453371.110 10 0 59590 81900.00000 0 10747349.193 -5340179.978 22515550.209 10 0 59590 82800.00000 0 10442494.606 -2535806.029 23140791.232 10 0 59590 83700.00000 0 10352514.560 332880.059 23316969.568 10 0 59590 84600.00000 0 10482491.494 3193899.887 23040663.106 10 0 59590 85500.00000 0 10824731.975 5975560.227 22317218.441 10 0 59591 0.00000 0 11359100.059 8609190.597 21160649.025 10 0 59591 900.00000 0 12053890.591 11031757.908 19593366.322 10 0 59591 1800.00000 0 12867205.348 13188247.062 17645750.401 10 0 59591 2700.00000 0 13748775.603 15033714.202 15355565.619 10 0 59591 3600.00000 0 14642154.284 16534924.363 12767233.427 10 0 59591 4500.00000 0 15487186.160 17671507.350 9930975.228 10 0 59591 5400.00000 0 16222652.259 18436583.924 6901841.341 10 0 59591 6300.00000 0 16788977.127 18836836.622 3738644.491 10 0 59591 7200.00000 0 17130884.549 18892022.696 502818.372 10 0 59591 8100.00000 0 17199889.210 18633950.114 -2742776.522 10 0 59591 9000.00000 0 16956518.424 18104960.231 -5935076.367 10 0 59591 9900.00000 0 16372169.231 17355981.516 -9012042.506 10 0 59591 10800.00000 0 15430521.479 16444236.968 -11913870.616 10 0 59591 11700.00000 0 14128446.099 15430702.451 -14584156.528 10 0 59591 12600.00000 0 12476369.200 14377423.700 -16970995.504 10 0 59591 13500.00000 0 10498075.448 13344805.617 -19027993.324 10 0 59591 14400.00000 0 8229957.843 12388988.515 -20715169.379 10 0 59591 15300.00000 0 5719744.340 11559422.133 -21999734.161 10 0 59591 16200.00000 0 3024753.607 10896739.679 -22856726.265 10 0 59591 17100.00000 0 209751.822 10431021.375 -23269496.745 10 0 59591 18000.00000 0 -2655500.793 10180520.431 -23230031.692 10 0 59591 18900.00000 0 -5498912.317 10150904.828 -22739107.050 10 0 59591 19800.00000 0 -8248820.270 10335046.528 -21806272.805 10 0 59591 20700.00000 0 -10836737.250 10713366.762 -20449666.935 10 0 59591 21600.00000 0 -13199967.570 11254722.598 -18695662.680 10 0 59591 22500.00000 0 -15283986.661 11917797.291 -16578355.785 10 0 59591 23400.00000 0 -17044484.768 12652935.662 -14138901.512 10 0 59591 24300.00000 0 -18448990.487 13404346.961 -11424714.093 10 0 59591 25200.00000 0 -19478007.182 14112582.078 -8488543.985 10 0 59591 26100.00000 0 -20125615.592 14717180.312 -5387450.916 10 0 59591 27000.00000 0 -20399518.393 15159373.584 -2181692.762 10 0 59591 27900.00000 0 -20320525.899 15384733.479 1066447.920 10 0 59591 28800.00000 0 -19921505.555 15345648.842 4293876.440 10 0 59591 29700.00000 0 -19245840.521 15003528.787 7437913.636 10 0 59591 30600.00000 0 -18345463.192 14330637.573 10437514.425 10 0 59591 31500.00000 0 -17278547.373 13311483.445 13234453.126 10 0 59591 32400.00000 0 -16106956.979 11943702.326 15774452.436 10 0 59591 33300.00000 0 -14893559.122 10238398.578 18008234.197 10 0 59591 34200.00000 0 -13699514.861 8219927.888 19892471.723 10 0 59591 35100.00000 0 -12581661.493 5925130.614 21390625.739 10 0 59591 36000.00000 0 -11590096.041 3402046.781 22473648.305 10 0 59591 36900.00000 0 -10766060.971 708165.489 23120541.720 10 0 59591 37800.00000 0 -10140220.236 -2091719.386 23318762.215 10 0 59591 38700.00000 0 -9731397.323 -4927959.149 23064461.169 10 0 59591 39600.00000 0 -9545827.682 -7728705.131 22362559.447 10 0 59591 40500.00000 0 -9576956.424 -10422659.348 21226653.533 10 0 59591 41400.00000 0 -9805789.489 -12941807.899 19678755.083 10 0 59591 42300.00000 0 -10201783.459 -15224024.457 17748868.546 10 0 59591 43200.00000 0 -10724236.698 -17215436.567 15474414.424 10 0 59591 44100.00000 0 -11324123.463 -18872457.036 12899508.653 10 0 59591 45000.00000 0 -11946294.023 -20163396.233 10074111.404 10 0 59591 45900.00000 0 -12531948.184 -21069588.530 7053061.197 10 0 59591 46800.00000 0 -13021277.955 -21585986.124 3895012.608 10 0 59591 47700.00000 0 -13356167.604 -21721195.614 661298.024 10 0 59591 48600.00000 0 -13482836.682 -21496956.147 -2585264.422 10 0 59591 49500.00000 0 -13354313.699 -20947081.368 -5781593.394 10 0 59591 50400.00000 0 -12932635.089 -20115910.016 -8865573.101 10 0 59591 51300.00000 0 -12190675.592 -19056330.845 -11777263.885 10 0 59591 52200.00000 0 -11113531.577 -17827465.492 -14460070.636 10 0 59591 53100.00000 0 -9699397.821 -16492107.335 -16861845.752 10 0 59591 54000.00000 0 -7959899.533 -15114024.642 -18935904.955 10 0 59591 54900.00000 0 -5919864.387 -13755241.841 -20641936.028 10 0 59591 55800.00000 0 -3616542.984 -12473413.502 -21946782.796 10 0 59591 56700.00000 0 -1098309.233 -11319401.526 -22825089.280 10 0 59591 57600.00000 0 1577106.108 -10335157.193 -23259791.781 10 0 59591 58500.00000 0 4344775.874 -9551996.798 -23242449.571 10 0 59591 59400.00000 0 7135041.761 -8989342.877 -22773408.054 10 0 59591 60300.00000 0 9876182.552 -8653983.369 -21861791.383 10 0 59591 61200.00000 0 12497174.859 -8539879.294 -20525324.715 10 0 59591 62100.00000 0 14930432.117 -8628528.456 -18789989.538 10 0 59591 63000.00000 0 17114408.424 -8889869.297 -16689518.526 10 0 59591 63900.00000 0 18995959.193 -9283686.338 -14264739.631 10 0 59591 64800.00000 0 20532360.774 -9761457.473 -11562781.882 10 0 59591 65700.00000 0 21692905.320 -10268564.722 -8636158.194 10 0 59591 66600.00000 0 22460004.778 -10746774.620 -5541743.040 10 0 59591 67500.00000 0 22829758.569 -11136883.008 -2339664.932 10 0 59591 68400.00000 0 22811961.934 -11381411.884 907864.514 10 0 59591 69300.00000 0 22429555.444 -11427243.796 4137761.762 10 0 59591 70200.00000 0 21717539.756 -11228081.858 7287298.823 10 0 59591 71100.00000 0 20721402.094 -10746630.856 10295322.807 10 0 59591 72000.00000 0 19495121.479 -9956406.780 13103443.423 10 0 59591 72900.00000 0 18098837.285 -8843097.867 15657165.262 10 0 59591 73800.00000 0 16596279.613 -7405419.148 17906942.903 10 0 59591 74700.00000 0 15052069.742 -5655423.939 19809138.542 10 0 59591 75600.00000 0 13529003.967 -3618258.380 21326864.038 10 0 59591 76500.00000 0 12085434.494 -1331368.411 22430691.670 10 0 59591 77400.00000 0 10772856.715 1156808.591 23099220.382 10 0 59591 78300.00000 0 9633803.232 3788614.058 23319487.265 10 0 59591 79200.00000 0 8700131.999 6499327.781 23087216.804 10 0 59591 80100.00000 0 7991779.479 9219628.066 22406903.371 10 0 59591 81000.00000 0 7516030.216 11878251.432 21291725.512 10 0 59591 81900.00000 0 7267332.756 14404742.491 19763293.474 10 0 59591 82800.00000 0 7227669.167 16732180.651 17851234.511 10 0 59591 83700.00000 0 7367462.266 18799771.132 15592623.387 10 0 59591 84600.00000 0 7646982.251 20555193.175 13031268.432 10 0 59591 85500.00000 0 8018193.476 21956607.950 10216866.317 99